GPS BIIR-4 (PRN 20)

Last updated on Mon Jan 12 2026 00:03:15 GMT+0000 (Coordinated Universal Time)

1 26360U 00025A 26011.12489747 -.00000084 00000+0 00000+0 0 9997 2 26360 55.0629 25.6494 0038828 244.7661 191.0052 2.00565215188129

Satellite not in orbit

GPS BIIR-4 (PRN 20)